[[{"header":{"parameterUnit":"m.s-1","parameterCategory":1,"la1":30.2991,"la2":30.254,"lo1":-89.0895,"lo2":-89.0444,"dy":0.0017,"dx":0.0017,"nx":28,"ny":28,"refTime":"2025-09-16T09:00:00:Z","depth":0,"parameterNumber":2,"parameterNumberName":"U-component_of_WINDS"},"data":[0,0,0,0,0,0,0,0,0,0,0,0,0,0,0,0,0,0,0,0,0,0,0,0,0,0,0,0,0,0,0,0,0,0,0,0,0,0,0,0,0,0,0,0,0,0,0,0,0,0,0,0,0,0,0,0,0,0,-0.6999,-0.6999,0,-0.7008,-0.7008,-0.7008,-0.6993,-0.6993,-0.6992,-0.6992,-0.7003,-0.7004,-0.7004,0,0,0,0,0,0,0,0,0,0,0,0,0,-0.6973,-0.6974,-0.6999,-0.6999,-0.7,-0.7008,-0.7008,-0.7008,-0.6994,-0.6993,-0.6992,-0.6992,-0.7003,-0.7004,-0.7005,0,0,0,0,0,0,0,0,0,0,0,0,0,-0.6983,-0.6974,-0.6999,-0.6993,-0.6993,-0.7008,-0.7008,-0.7008,-0.6994,-0.6993,-0.6992,-0.6991,-0.7002,-0.7004,-0.7005,-0.7027,0,0,-0.7008,-0.7009,0,0,0,0,0,0,0,0,-0.6983,-0.6984,-0.6994,-0.6994,-0.6993,-0.6999,-0.7003,-0.7015,-0.6994,-0.6993,-0.6992,-0.6991,-0.7002,-0.7003,-0.7007,-0.7027,-0.7028,-0.7008,-0.7009,-0.7009,-0.701,0,0,0,0,0,0,0,-0.6982,-0.6984,-0.7003,-0.6994,-0.6994,-0.6991,-0.6992,-0.7005,-0.7002,-0.6993,-0.6992,-0.6993,-0.7002,-0.7006,-0.7007,-0.7028,-0.7008,-0.7009,-0.701,-0.701,-0.7069,-0.707,0,0,0,0,0,0,-0.6982,-0.6983,-0.7003,-0.7003,-0.6986,-0.6992,-0.6993,-0.6998,-0.7002,-0.7002,-0.6994,-0.6993,-0.7004,-0.7006,-0.7007,-0.7035,-0.7009,-0.7011,-0.7011,-0.7068,-0.7069,-0.707,0,0,0,0,0,0,-0.6981,-0.6984,-0.7002,-0.6993,-0.6995,-0.6993,-0.6999,-0.6998,-0.7002,-0.7002,-0.7002,-0.6998,-0.7004,-0.7006,-0.7022,-0.7035,-0.7011,-0.7012,-0.7067,-0.7068,-0.7069,-0.7089,0,0,0,0,0,0,-0.6981,-0.6984,-0.6991,-0.6993,-0.6996,-0.7016,-0.7,-0.6999,-0.7004,-0.7002,-0.7006,-0.7006,-0.7003,-0.7021,-0.7023,-0.7036,-0.7013,-0.7066,-0.7067,-0.7069,-0.7087,-0.7091,-0.7094,0,0,0,0,0,-0.698,-0.6997,-0.6992,-0.6994,-0.7005,-0.7017,-0.7018,-0.7014,-0.7005,-0.7013,-0.7013,-0.7006,-0.7033,-0.7022,-0.7025,-0.7038,-0.7065,-0.7067,-0.7069,-0.7086,-0.709,-0.7093,0,0,0,0,0,0,-0.6997,-0.6997,-0.6991,-0.7009,-0.7013,-0.7014,-0.7025,-0.7019,-0.7026,-0.7024,-0.7019,-0.702,-0.7038,-0.704,-0.7028,-0.7061,-0.7047,-0.705,-0.7059,-0.7063,-0.7066,-0.7066,-0.7014,0,0,0,0,0,-0.7003,-0.7011,-0.7011,-0.7027,-0.7029,-0.7027,-0.7032,-0.7028,-0.7032,-0.7034,-0.7035,-0.704,-0.705,-0.7057,-0.7065,-0.7087,-0.7088,-0.7097,-0.7101,-0.7103,-0.7106,-0.7119,-0.7124,-0.7076,-0.7076,-0.7076,0,0,-0.7015,-0.7016,-0.7022,-0.703,-0.7033,-0.7043,-0.7028,-0.7039,-0.7047,-0.7036,-0.7052,-0.7053,-0.7058,-0.7078,-0.7087,-0.708,-0.7119,-0.7106,-0.7108,-0.7109,-0.7122,-0.7126,-0.713,-0.7078,-0.7077,-0.7077,0,0,-0.7043,-0.7044,-0.7058,-0.706,-0.7064,-0.7063,-0.7066,-0.7068,-0.7069,-0.7084,-0.7076,-0.7086,-0.7102,-0.7107,-0.7111,-0.7141,-0.7135,-0.7144,-0.7162,-0.7175,-0.7178,-0.7182,-0.7194,-0.7198,-0.7147,-0.7147,-0.7147,0,-0.7058,-0.7072,-0.7066,-0.7078,-0.7082,-0.7071,-0.7086,-0.709,-0.7097,-0.71,-0.7093,-0.7114,-0.7116,-0.7137,-0.7145,-0.7148,-0.7153,-0.7144,-0.7178,-0.7181,-0.7184,-0.7196,-0.72,-0.7148,-0.7148,-0.7148,-0.7148,0,-0.7091,-0.7101,-0.7112,-0.7118,-0.7124,-0.7137,-0.7134,-0.7141,-0.7137,-0.7136,-0.7153,-0.7156,-0.7166,-0.717,-0.7166,-0.7191,-0.7187,-0.7179,-0.7165,-0.719,-0.7201,-0.7205,-0.715,-0.7149,-0.7149,-0.7149,0,0,-0.713,-0.7133,-0.7137,-0.7141,-0.7144,-0.7152,-0.7166,-0.7175,-0.7181,-0.7186,-0.7198,-0.7212,-0.7205,-0.721,-0.7207,-0.7218,-0.7243,-0.7208,-0.7208,-0.7216,-0.7272,-0.7279,-0.7284,-0.7239,-0.7239,-0.724,-0.7272,0,-0.7159,-0.7181,-0.7176,-0.7198,-0.7208,-0.7198,-0.721,-0.7214,-0.7214,-0.7224,-0.7224,-0.7234,-0.7223,-0.7226,-0.7237,-0.7238,-0.7255,-0.7235,-0.7251,-0.7252,-0.7251,-0.729,-0.7297,-0.7328,-0.7276,-0.7277,-0.7277,0,-0.7196,-0.7202,-0.7225,-0.7228,-0.7232,-0.7242,-0.725,-0.7259,-0.7264,-0.7263,-0.7269,-0.7264,-0.7278,-0.7264,-0.7284,-0.7271,-0.7278,-0.7279,-0.728,-0.7283,-0.7267,-0.7295,-0.7337,-0.7342,-0.7284,-0.7283,-0.7283,0,-0.7224,-0.7238,-0.7254,-0.7257,-0.726,-0.7268,-0.727,-0.7274,-0.728,-0.7287,-0.7291,-0.73,-0.7306,-0.7313,-0.7311,-0.7301,-0.7333,-0.7318,-0.7334,-0.7334,-0.7342,-0.7342,-0.7388,-0.7344,-0.7344,-0.7344,-0.7344,0,-0.7257,-0.7272,-0.7267,-0.7277,-0.7293,-0.7288,-0.7305,-0.7306,-0.7309,-0.732,-0.7312,-0.7323,-0.7318,-0.7329,-0.7327,-0.7346,-0.7348,-0.7349,-0.7349,-0.735,-0.735,-0.7355,-0.7354,-0.7345,-0.7345,-0.7345,-0.7345,0,-0.7292,-0.7289,-0.7306,-0.7307,-0.7308,-0.732,-0.7322,-0.7332,-0.7331,-0.7345,-0.7348,-0.7347,-0.7359,-0.7358,-0.7371,-0.737,-0.7394,-0.739,-0.7392,-0.7392,-0.7408,-0.7407,-0.746,-0.7467,-0.7417,-0.7418,-0.7418,0,-0.7315,-0.7326,-0.7328,-0.7334,-0.7337,-0.7347,-0.7353,-0.7348,-0.7354,-0.7361,-0.7371,-0.7382,-0.7391,-0.7411,-0.7412,-0.7423,-0.7421,-0.7438,-0.7422,-0.7424,-0.7423,-0.7423,-0.7424,-0.7442,-0.7442,-0.7443,-0.7443,0,-0.7355,-0.7353,-0.7361,-0.7369,-0.7376,-0.7382,-0.7388,-0.7394,-0.7389,-0.7397,-0.7409,-0.7416,-0.743,-0.7442,-0.7452,-0.7455,-0.7449,-0.7448,-0.7452,-0.7455,-0.7456,-0.7457,-0.7402,-0.7447,-0.7447,-0.7446,-0.7446,-0.7446,-0.7385,-0.7395,-0.7399,-0.7408,-0.7412,-0.7417,-0.7427,-0.7427,-0.7436,-0.7447,-0.7443,-0.7457,-0.7463,-0.7476,-0.748,-0.7492,-0.7485,-0.7492,-0.7493,-0.7495,-0.7498,-0.7453,-0.7493,-0.7493,-0.7493,-0.7493,-0.7493,0,-0.7427,-0.7428,-0.7437,-0.7445,-0.7453,-0.7445,-0.7451,-0.7458,-0.747,-0.7475,-0.7484,-0.7499,-0.751,-0.7512,-0.7523,-0.7533,-0.753,-0.7536,-0.7536,-0.7537,-0.7502,-0.7498,-0.7538,-0.7538,-0.7538,-0.7538,-0.7538,-0.7538,-0.7449,-0.7466,-0.7464,-0.7483,-0.7484,-0.7497,-0.7501,-0.7507,-0.7511,-0.7527,-0.7536,-0.7537,-0.7541,-0.7553,-0.7564,-0.7564,-0.7569,-0.7576,-0.7576,-0.7544,-0.7539,-0.7535,-0.7531,-0.7577,-0.7577,-0.761,-0.761,-0.7611]},{"header":{"parameterUnit":"m.s-1","parameterCategory":1,"la1":30.2991,"la2":30.254,"lo1":-89.0895,"lo2":-89.0444,"dy":0.0017,"dx":0.0017,"nx":28,"ny":28,"refTime":"2025-09-16T09:00:00:Z","depth":0,"parameterNumber":3,"parameterNumberName":"V-component_of_WINDS"},"data":[0,0,0,0,0,0,0,0,0,0,0,0,0,0,0,0,0,0,0,0,0,0,0,0,0,0,0,0,0,0,0,0,0,0,0,0,0,0,0,0,0,0,0,0,0,0,0,0,0,0,0,0,0,0,0,0,0,0,3.4668,3.4669,0,3.4681,3.4681,3.4681,3.4669,3.4668,3.4668,3.4667,3.4678,3.4679,3.468,0,0,0,0,0,0,0,0,0,0,0,0,0,3.4632,3.4633,3.4668,3.4669,3.4669,3.4681,3.4681,3.4681,3.4669,3.4668,3.4668,3.4667,3.4678,3.4679,3.468,0,0,0,0,0,0,0,0,0,0,0,0,0,3.4647,3.4633,3.4668,3.4664,3.4664,3.4681,3.4681,3.4681,3.4669,3.4668,3.4667,3.4667,3.4678,3.4679,3.468,3.4701,0,0,3.4683,3.4684,0,0,0,0,0,0,0,0,3.4646,3.4648,3.4665,3.4664,3.4664,3.4673,3.4672,3.4688,3.4669,3.4667,3.4667,3.4666,3.4677,3.4678,3.4682,3.4702,3.4702,3.4683,3.4684,3.4685,3.4685,0,0,0,0,0,0,0,3.4645,3.4647,3.4673,3.4665,3.4665,3.4661,3.4662,3.4675,3.4676,3.4667,3.4666,3.4668,3.4677,3.4681,3.4682,3.4702,3.4683,3.4684,3.4685,3.4685,3.474,3.4741,0,0,0,0,0,0,3.4645,3.4647,3.4673,3.4674,3.4653,3.4662,3.4664,3.4671,3.4676,3.4676,3.4669,3.4667,3.4679,3.4681,3.4682,3.4707,3.4685,3.4686,3.4686,3.4739,3.474,3.4741,0,0,0,0,0,0,3.4644,3.4647,3.4672,3.466,3.4663,3.4664,3.4672,3.4671,3.4675,3.4677,3.4677,3.4673,3.4679,3.4681,3.4697,3.4707,3.4686,3.4687,3.4738,3.474,3.4741,3.4757,0,0,0,0,0,0,3.4643,3.4647,3.4655,3.466,3.4664,3.4687,3.4672,3.4672,3.4678,3.4676,3.4681,3.4681,3.4678,3.4695,3.4698,3.4708,3.4688,3.4737,3.4739,3.474,3.4755,3.4758,3.4761,0,0,0,0,0,3.4642,3.4659,3.4656,3.4659,3.4674,3.4688,3.469,3.4687,3.4679,3.4687,3.4688,3.4681,3.4706,3.4697,3.47,3.4711,3.4737,3.4739,3.474,3.4754,3.4758,3.4761,0,0,0,0,0,0,3.4654,3.466,3.4656,3.4676,3.4682,3.4686,3.4696,3.4691,3.4699,3.4697,3.4693,3.4694,3.4711,3.4713,3.4702,3.4732,3.472,3.4722,3.4729,3.4733,3.4736,3.4734,3.4689,0,0,0,0,0,3.466,3.4671,3.4675,3.4692,3.4695,3.4695,3.4701,3.4698,3.4704,3.4706,3.4708,3.4713,3.4722,3.4728,3.4736,3.4756,3.4756,3.4765,3.4768,3.4771,3.4772,3.4782,3.4786,3.4747,3.4747,3.4747,0,0,3.4671,3.4675,3.4682,3.4694,3.4698,3.4709,3.4697,3.4709,3.4717,3.4707,3.4722,3.4724,3.473,3.4747,3.4755,3.4749,3.4783,3.4773,3.4775,3.4775,3.4784,3.4788,3.4791,3.4748,3.4748,3.4748,0,0,3.4695,3.47,3.4715,3.4719,3.4726,3.4726,3.473,3.4735,3.4735,3.4751,3.4744,3.4753,3.4769,3.4773,3.4777,3.4804,3.4797,3.4807,3.4821,3.4831,3.4834,3.4836,3.4845,3.4848,3.4809,3.4809,3.4809,0,3.4707,3.4724,3.4722,3.4735,3.474,3.4733,3.4747,3.4752,3.4761,3.4764,3.4758,3.4778,3.4781,3.4799,3.4806,3.481,3.4813,3.4805,3.4834,3.4836,3.4839,3.4847,3.485,3.481,3.481,3.481,3.481,0,3.4738,3.475,3.4761,3.477,3.4777,3.479,3.479,3.4797,3.4794,3.4795,3.481,3.4814,3.4823,3.4827,3.4824,3.4845,3.4841,3.4834,3.4822,3.4843,3.4851,3.4854,3.4811,3.4811,3.4811,3.481,0,0,3.477,3.4779,3.4783,3.4787,3.4794,3.4802,3.4815,3.4825,3.483,3.4837,3.4847,3.4861,3.4855,3.486,3.4857,3.4866,3.4886,3.4858,3.4858,3.4862,3.4908,3.4912,3.4915,3.4883,3.4883,3.4884,3.4907,0,3.4794,3.4817,3.4816,3.4837,3.4847,3.4841,3.4852,3.4858,3.4859,3.4867,3.4868,3.4878,3.487,3.4872,3.4881,3.4882,3.4895,3.488,3.4891,3.4891,3.4888,3.4919,3.4923,3.4945,3.491,3.491,3.4911,0,3.4824,3.4833,3.4855,3.486,3.4865,3.4875,3.4883,3.4892,3.4898,3.4898,3.4903,3.49,3.4912,3.4901,3.4918,3.4908,3.4912,3.4914,3.4914,3.4914,3.4901,3.4918,3.4952,3.4955,3.4916,3.4915,3.4915,0,3.4844,3.486,3.4876,3.488,3.4887,3.4894,3.4897,3.4903,3.4908,3.4916,3.4919,3.4928,3.4932,3.4938,3.4937,3.4929,3.4954,3.4943,3.4953,3.4953,3.4957,3.4957,3.499,3.4963,3.4962,3.4962,3.4962,0,3.487,3.4883,3.4884,3.4894,3.4908,3.4907,3.4922,3.4924,3.4929,3.4938,3.4934,3.4943,3.4941,3.495,3.4949,3.4962,3.4964,3.4964,3.4963,3.4964,3.4964,3.4965,3.4963,3.4963,3.4963,3.4963,3.4963,0,3.4893,3.4895,3.4911,3.4917,3.4919,3.4929,3.4934,3.4942,3.4944,3.4955,3.4958,3.4959,3.4969,3.4969,3.498,3.4979,3.4995,3.4994,3.4993,3.4992,3.5002,3.5001,3.5037,3.5042,3.5012,3.5013,3.5013,0,3.4908,3.4919,3.4926,3.4932,3.4936,3.4946,3.4952,3.4952,3.4958,3.4966,3.4973,3.4983,3.499,3.5006,3.5007,3.5016,3.5013,3.5025,3.5014,3.5014,3.5012,3.5011,3.5011,3.5027,3.5027,3.5028,3.5028,0,3.4936,3.4936,3.4945,3.4955,3.4962,3.4969,3.4976,3.4981,3.4981,3.4988,3.4999,3.5005,3.5016,3.5025,3.5033,3.5036,3.5031,3.5032,3.5034,3.5034,3.5033,3.5032,3.4998,3.503,3.503,3.503,3.503,3.503,3.4955,3.4963,3.497,3.498,3.4985,3.4992,3.5,3.5003,3.5011,3.5021,3.502,3.5031,3.5037,3.5047,3.5051,3.5059,3.5055,3.5059,3.506,3.506,3.5061,3.5033,3.5061,3.5061,3.5061,3.5061,3.506,0,3.498,3.4985,3.4994,3.5004,3.5012,3.5009,3.5016,3.5022,3.5032,3.5038,3.5046,3.5057,3.5066,3.5069,3.5078,3.5084,3.5082,3.5086,3.5085,3.5085,3.5065,3.5061,3.5087,3.5087,3.5087,3.5087,3.5087,3.5087,3.4994,3.5009,3.501,3.5027,3.5031,3.5042,3.5047,3.5052,3.5057,3.507,3.5078,3.508,3.5085,3.5094,3.5101,3.5102,3.5105,3.5109,3.5109,3.5089,3.5087,3.5084,3.508,3.511,3.511,3.5128,3.5128,3.5129]}]]